Location: Haliburton Scout Reserve
(45.0900°N, 78.3200°W)
Time: 02:43:44
(UTC-04:00)

Max Valier Satellite - Visible Passes

Search period start: 23 September 2023 00:00
Search period end: 03 October 2023 00:00
Orbit: 428 x 441 km, 97.1° (Epoch: 22 September)

Date Brightness Start Highest point End Pass type
(mag) Time Alt. Az. Time Alt. Az. Time Alt. Az.
23 Sep ? 19:34:57 10° ESE 19:37:07 17° ENE 19:39:18 10° NNE visible
23 Sep ? 21:06:33 10° SSW 21:09:22 28° W 21:12:17 10° NW visible
24 Sep ? 20:26:33 12° SSE 20:29:29 79° ENE 20:32:47 10° N visible
25 Sep ? 19:47:05 10° ESE 19:49:45 23° ENE 19:52:25 10° NNE visible
25 Sep ? 21:19:50 11° SW 21:22:10 20° W 21:24:39 10° NW visible
26 Sep ? 20:39:42 17° S 20:42:05 67° W 20:45:22 10° NNW visible
27 Sep ? 19:59:33 12° SE 20:02:10 32° ENE 20:05:10 10° N visible
27 Sep ? 21:32:58 10° SW 21:34:45 14° W 21:36:32 10° WNW visible
28 Sep ? 20:52:39 21° SSW 20:54:30 44° W 20:57:39 10° NNW visible
29 Sep ? 20:12:22 19° SE 20:14:24 47° ENE 20:17:35 10° N visible
30 Sep ? 19:32:27 10° ESE 19:34:29 16° ENE 19:36:32 10° NNE visible
30 Sep ? 21:05:21 22° SW 21:06:41 30° W 21:09:38 10° NNW visible
01 Oct ? 20:24:58 30° SSE 20:26:25 72° ENE 20:29:42 10° N visible
02 Oct ? 19:44:33 14° ESE 19:46:20 21° ENE 19:48:53 10° NNE visible
02 Oct ? 21:17:51 19° WSW 21:18:40 21° W 21:21:16 10° NW visible
